Location: Unspecified
(0.0000°N, 0.0000°E)
Time: 21:20:06
(UTC+00:00)

CZ-3C DEB (VEB) - Pass Details

Date: 12 March 2026
Orbit: 224 x 25513 km, 21.0° (Epoch: 10 April)

Event Time Altitude Azimuth Distance (km) Brightness Sun altitude
Rises 01:17:45 0° 293° (WNW) 10,545 ? -72.7°
Reaches altitude 10° 01:23:44 10° 296° (WNW) 11,073 ? -71.2°
Enters shadow 01:44:24 33° 304° (NW) 13,764 ? -66.1°
Exits shadow 02:08:15 46° 309° (NW) 17,111 ? -60.2°
Maximum altitude 04:20:34 60° 299° (WNW) 26,384 ? -27.3°
Drops below altitude 10° 07:55:55 10° 126° (SE) 5,578 ? 26.5°
Sets 07:58:17 0° 122° (ESE) 5,841 ? 27.1°
